Wetterdaten: Freitag, 21.11.2014
Datum Zeit Temperatur Luftfeuchte Luftdruck Regen Wind Richtung Richtung Taupunkt Windchill Windben
21.11.2014 00:00 3,1 C 96 % 1022,9 hPa 0,0 l/m 0,0 km/h (0 Bft) SO 135 2,5 C 7,8 C 0,0 km/h (0 Bft)
21.11.2014 00:05 3,0 C 96 % 1022,9 hPa 0,0 l/m 0,0 km/h (0 Bft) SO 135 2,4 C 7,8 C 0,0 km/h (0 Bft)
21.11.2014 00:10 3,0 C 96 % 1022,9 hPa 0,0 l/m 0,0 km/h (0 Bft) SO 135 2,4 C 7,8 C 0,0 km/h (0 Bft)
21.11.2014 00:15 3,0 C 96 % 1022,9 hPa 0,0 l/m 0,0 km/h (0 Bft) SO 135 2,4 C 7,8 C 0,0 km/h (0 Bft)
21.11.2014 00:20 3,0 C 96 % 1022,7 hPa 0,0 l/m 0,0 km/h (0 Bft) SO 135 2,4 C 7,8 C 0,0 km/h (0 Bft)
21.11.2014 00:25 2,9 C 97 % 1022,7 hPa 0,0 l/m 0,0 km/h (0 Bft) SO 135 2,5 C 7,8 C 0,0 km/h (0 Bft)
21.11.2014 00:30 2,9 C 97 % 1022,7 hPa 0,0 l/m 0,0 km/h (0 Bft) SO 135 2,5 C 7,8 C 0,0 km/h (0 Bft)
21.11.2014 00:35 2,9 C 97 % 1022,7 hPa 0,0 l/m 0,0 km/h (0 Bft) SO 135 2,5 C 7,8 C 0,0 km/h (0 Bft)
21.11.2014 00:40 3,0 C 96 % 1022,6 hPa 0,0 l/m 0,0 km/h (0 Bft) SO 135 2,4 C 7,8 C 0,0 km/h (0 Bft)
21.11.2014 00:45 2,9 C 97 % 1022,6 hPa 0,0 l/m 0,0 km/h (0 Bft) SO 135 2,5 C 7,8 C 0,0 km/h (0 Bft)
21.11.2014 00:50 2,9 C 97 % 1022,6 hPa 0,0 l/m 0,0 km/h (0 Bft) SO 135 2,5 C 7,8 C 0,0 km/h (0 Bft)
21.11.2014 00:55 2,9 C 97 % 1022,6 hPa 0,0 l/m 0,0 km/h (0 Bft) SO 135 2,5 C 7,8 C 0,0 km/h (0 Bft)
21.11.2014 01:00 2,9 C 97 % 1022,7 hPa 0,0 l/m 0,0 km/h (0 Bft) SO 135 2,5 C 7,8 C 0,0 km/h (0 Bft)
21.11.2014 01:05 3,0 C 96 % 1022,7 hPa 0,0 l/m 0,0 km/h (0 Bft) SO 135 2,4 C 7,8 C 0,0 km/h (0 Bft)
21.11.2014 01:10 3,0 C 96 % 1022,7 hPa 0,0 l/m 0,0 km/h (0 Bft) SO 135 2,4 C 7,8 C 0,0 km/h (0 Bft)
21.11.2014 01:15 3,0 C 96 % 1022,7 hPa 0,0 l/m 0,0 km/h (0 Bft) SO 135 2,4 C 7,8 C 0,0 km/h (0 Bft)
21.11.2014 01:20 3,0 C 96 % 1022,4 hPa 0,0 l/m 0,0 km/h (0 Bft) SO 135 2,4 C 7,8 C 0,0 km/h (0 Bft)
21.11.2014 01:25 3,0 C 96 % 1022,4 hPa 0,0 l/m 0,0 km/h (0 Bft) SO 135 2,4 C 7,8 C 0,0 km/h (0 Bft)
21.11.2014 01:30 3,0 C 96 % 1022,4 hPa 0,0 l/m 0,0 km/h (0 Bft) SO 135 2,4 C 7,8 C 0,0 km/h (0 Bft)
21.11.2014 01:35 3,1 C 96 % 1022,4 hPa 0,0 l/m 0,0 km/h (0 Bft) SO 135 2,5 C 7,8 C 0,0 km/h (0 Bft)
21.11.2014 01:40 3,1 C 96 % 1022,4 hPa 0,0 l/m 0,0 km/h (0 Bft) SO 135 2,5 C 7,8 C 0,0 km/h (0 Bft)
21.11.2014 01:45 3,1 C 96 % 1022,4 hPa 0,0 l/m 0,0 km/h (0 Bft) SO 135 2,5 C 7,8 C 0,0 km/h (0 Bft)
21.11.2014 01:50 3,1 C 96 % 1022,4 hPa 0,0 l/m 0,0 km/h (0 Bft) SO 135 2,5 C 7,8 C 0,0 km/h (0 Bft)
21.11.2014 01:55 3,2 C 96 % 1022,4 hPa 0,0 l/m 0,0 km/h (0 Bft) SO 135 2,6 C 7,8 C 0,0 km/h (0 Bft)
21.11.2014 02:00 3,2 C 96 % 1022,4 hPa 0,0 l/m 0,0 km/h (0 Bft) SO 135 2,6 C 7,8 C 0,0 km/h (0 Bft)
21.11.2014 02:05 3,2 C 96 % 1022,4 hPa 0,0 l/m 0,0 km/h (0 Bft) SO 135 2,6 C 7,8 C 0,0 km/h (0 Bft)
21.11.2014 02:10 3,1 C 96 % 1022,4 hPa 0,0 l/m 0,0 km/h (0 Bft) SO 135 2,5 C 7,8 C 0,0 km/h (0 Bft)
21.11.2014 02:15 3,1 C 96 % 1022,4 hPa 0,0 l/m 0,0 km/h (0 Bft) SO 135 2,5 C 7,8 C 0,0 km/h (0 Bft)
21.11.2014 02:20 3,1 C 96 % 1022,8 hPa 0,0 l/m 0,0 km/h (0 Bft) SO 135 2,5 C 7,8 C 0,0 km/h (0 Bft)
21.11.2014 02:25 3,1 C 96 % 1022,8 hPa 0,0 l/m 0,0 km/h (0 Bft) SO 135 2,5 C 7,8 C 0,0 km/h (0 Bft)
21.11.2014 02:30 3,1 C 96 % 1022,8 hPa 0,0 l/m 0,0 km/h (0 Bft) SO 135 2,5 C 7,8 C 0,0 km/h (0 Bft)
21.11.2014 02:35 3,1 C 96 % 1022,8 hPa 0,0 l/m 0,0 km/h (0 Bft) SO 135 2,5 C 7,8 C 0,0 km/h (0 Bft)
21.11.2014 02:40 3,1 C 96 % 1022,8 hPa 0,0 l/m 0,0 km/h (0 Bft) SO 135 2,5 C 7,8 C 0,0 km/h (0 Bft)
21.11.2014 02:45 3,0 C 96 % 1022,8 hPa 0,0 l/m 0,0 km/h (0 Bft) SO 135 2,4 C 7,8 C 0,0 km/h (0 Bft)
21.11.2014 02:48 3,0 C 96 % 1022,8 hPa 0,0 l/m 0,0 km/h (0 Bft) SO 135 2,4 C 7,8 C 0,0 km/h (0 Bft)
21.11.2014 02:50 3,0 C 96 % 1022,8 hPa 0,0 l/m 0,0 km/h (0 Bft) SO 135 2,4 C 7,8 C 0,0 km/h (0 Bft)
21.11.2014 02:55 3,0 C 96 % 1022,8 hPa 0,0 l/m 0,0 km/h (0 Bft) SO 135 2,4 C 7,8 C 0,0 km/h (0 Bft)
21.11.2014 03:00 3,0 C 96 % 1022,8 hPa 0,0 l/m 0,0 km/h (0 Bft) SO 135 2,4 C 7,8 C 0,0 km/h (0 Bft)
21.11.2014 03:05 3,0 C 96 % 1022,8 hPa 0,0 l/m 0,0 km/h (0 Bft) SO 135 2,4 C 7,8 C 0,0 km/h (0 Bft)
21.11.2014 03:10 3,0 C 96 % 1022,8 hPa 0,0 l/m 0,0 km/h (0 Bft) SO 135 2,4 C 7,8 C 0,0 km/h (0 Bft)
21.11.2014 03:15 3,0 C 96 % 1022,8 hPa 0,0 l/m 0,0 km/h (0 Bft) SO 135 2,4 C 7,8 C 0,0 km/h (0 Bft)
21.11.2014 03:20 3,0 C 96 % 1022,4 hPa 0,0 l/m 0,0 km/h (0 Bft) SO 135 2,4 C 7,8 C 0,0 km/h (0 Bft)
21.11.2014 03:25 2,9 C 97 % 1022,4 hPa 0,0 l/m 0,0 km/h (0 Bft) SO 135 2,5 C 7,8 C 0,0 km/h (0 Bft)
21.11.2014 03:30 2,9 C 97 % 1022,4 hPa 0,0 l/m 0,0 km/h (0 Bft) SO 135 2,5 C 7,8 C 0,0 km/h (0 Bft)
21.11.2014 03:35 2,8 C 97 % 1022,4 hPa 0,0 l/m 0,0 km/h (0 Bft) SO 135 2,4 C 7,8 C 0,0 km/h (0 Bft)
21.11.2014 03:40 2,8 C 97 % 1022,4 hPa 0,0 l/m 0,0 km/h (0 Bft) SO 135 2,4 C 7,8 C 0,0 km/h (0 Bft)
21.11.2014 03:45 2,7 C 97 % 1022,4 hPa 0,0 l/m 0,0 km/h (0 Bft) SO 135 2,3 C 7,8 C 0,0 km/h (0 Bft)
21.11.2014 03:50 2,7 C 97 % 1022,4 hPa 0,0 l/m 0,0 km/h (0 Bft) SO 135 2,3 C 7,8 C 0,0 km/h (0 Bft)
21.11.2014 03:55 2,6 C 97 % 1022,4 hPa 0,0 l/m 0,0 km/h (0 Bft) SO 135 2,2 C 7,8 C 0,0 km/h (0 Bft)
21.11.2014 04:00 2,6 C 97 % 1022,5 hPa 0,0 l/m 0,0 km/h (0 Bft) SO 135 2,2 C 7,8 C 0,0 km/h (0 Bft)
21.11.2014 04:05 2,6 C 97 % 1022,5 hPa 0,0 l/m 0,0 km/h (0 Bft) SO 135 2,2 C 7,8 C 0,0 km/h (0 Bft)
21.11.2014 04:10 2,6 C 97 % 1022,5 hPa 0,0 l/m 0,0 km/h (0 Bft) SO 135 2,2 C 7,8 C 0,0 km/h (0 Bft)
21.11.2014 04:15 2,6 C 97 % 1022,5 hPa 0,0 l/m 0,0 km/h (0 Bft) SO 135 2,2 C 7,8 C 0,0 km/h (0 Bft)
21.11.2014 04:20 2,6 C 97 % 1022,4 hPa 0,0 l/m 0,0 km/h (0 Bft) SO 135 2,2 C 7,8 C 0,0 km/h (0 Bft)
21.11.2014 04:25 2,6 C 97 % 1022,4 hPa 0,0 l/m 0,0 km/h (0 Bft) SO 135 2,2 C 7,8 C 0,0 km/h (0 Bft)
21.11.2014 04:30 2,5 C 97 % 1022,4 hPa 0,0 l/m 0,0 km/h (0 Bft) SO 135 2,1 C 7,8 C 0,0 km/h (0 Bft)
21.11.2014 04:35 2,5 C 97 % 1022,4 hPa 0,0 l/m 0,0 km/h (0 Bft) SO 135 2,1 C 7,8 C 0,0 km/h (0 Bft)
21.11.2014 04:40 2,5 C 97 % 1022,3 hPa 0,0 l/m 0,0 km/h (0 Bft) SO 135 2,1 C 7,8 C 0,0 km/h (0 Bft)
21.11.2014 04:45 2,4 C 97 % 1022,3 hPa 0,0 l/m 0,0 km/h (0 Bft) SO 135 2,0 C 7,8 C 0,0 km/h (0 Bft)
21.11.2014 04:50 2,4 C 97 % 1022,3 hPa 0,0 l/m 0,0 km/h (0 Bft) SO 135 2,0 C 7,8 C 0,0 km/h (0 Bft)
21.11.2014 04:55 2,4 C 97 % 1022,3 hPa 0,0 l/m 0,0 km/h (0 Bft) SO 135 2,0 C 7,8 C 0,0 km/h (0 Bft)
21.11.2014 05:00 2,3 C 97 % 1022,4 hPa 0,0 l/m 0,0 km/h (0 Bft) SO 135 1,9 C 7,8 C 0,0 km/h (0 Bft)
21.11.2014 05:05 2,3 C 97 % 1022,4 hPa 0,0 l/m 0,0 km/h (0 Bft) SO 135 1,9 C 7,8 C 0,0 km/h (0 Bft)
21.11.2014 05:10 2,2 C 97 % 1022,4 hPa 0,0 l/m 0,0 km/h (0 Bft) SO 135 1,8 C 7,8 C 0,0 km/h (0 Bft)
21.11.2014 05:15 2,1 C 97 % 1022,4 hPa 0,0 l/m 0,0 km/h (0 Bft) SO 135 1,7 C 7,8 C 0,0 km/h (0 Bft)
21.11.2014 05:20 1,9 C 97 % 1022,1 hPa 0,0 l/m 0,0 km/h (0 Bft) SO 135 1,5 C 7,8 C 0,0 km/h (0 Bft)
21.11.2014 05:25 1,8 C 97 % 1022,1 hPa 0,0 l/m 0,0 km/h (0 Bft) SO 135 1,4 C 7,8 C 0,0 km/h (0 Bft)
21.11.2014 05:30 1,9 C 97 % 1022,1 hPa 0,0 l/m 0,0 km/h (0 Bft) SO 135 1,5 C 7,8 C 0,0 km/h (0 Bft)
21.11.2014 05:35 2,0 C 97 % 1022,1 hPa 0,0 l/m 0,0 km/h (0 Bft) SO 135 1,6 C 7,8 C 0,0 km/h (0 Bft)
21.11.2014 05:40 2,1 C 97 % 1022,2 hPa 0,0 l/m 0,0 km/h (0 Bft) SO 135 1,7 C 7,8 C 0,0 km/h (0 Bft)
21.11.2014 05:45 2,1 C 97 % 1022,2 hPa 0,0 l/m 0,0 km/h (0 Bft) SO 135 1,7 C 7,8 C 0,0 km/h (0 Bft)
21.11.2014 05:48 2,1 C 97 % 1022,2 hPa 0,0 l/m 0,0 km/h (0 Bft) SO 135 1,7 C 7,8 C 0,0 km/h (0 Bft)
21.11.2014 05:50 2,1 C 97 % 1022,2 hPa 0,0 l/m 0,0 km/h (0 Bft) SO 135 1,7 C 7,8 C 0,0 km/h (0 Bft)
21.11.2014 05:55 1,9 C 97 % 1022,2 hPa 0,0 l/m 0,0 km/h (0 Bft) SO 135 1,5 C 7,8 C 0,0 km/h (0 Bft)
21.11.2014 06:00 1,9 C 97 % 1022,0 hPa 0,0 l/m 0,0 km/h (0 Bft) SO 135 1,5 C 7,8 C 0,0 km/h (0 Bft)
21.11.2014 06:05 1,9 C 97 % 1022,0 hPa 0,0 l/m 0,0 km/h (0 Bft) SO 135 1,5 C 7,8 C 0,0 km/h (0 Bft)
21.11.2014 06:10 1,9 C 97 % 1022,0 hPa 0,0 l/m 0,0 km/h (0 Bft) SO 135 1,5 C 7,8 C 0,0 km/h (0 Bft)
21.11.2014 06:15 2,0 C 97 % 1022,0 hPa 0,0 l/m 0,0 km/h (0 Bft) SO 135 1,6 C 7,8 C 0,0 km/h (0 Bft)
21.11.2014 06:20 2,0 C 97 % 1022,1 hPa 0,0 l/m 0,0 km/h (0 Bft) SO 135 1,6 C 7,8 C 0,0 km/h (0 Bft)
21.11.2014 06:25 1,9 C 97 % 1022,1 hPa 0,0 l/m 0,0 km/h (0 Bft) SO 135 1,5 C 7,8 C 0,0 km/h (0 Bft)
21.11.2014 06:30 1,9 C 97 % 1022,1 hPa 0,0 l/m 0,0 km/h (0 Bft) SO 135 1,5 C 7,8 C 0,0 km/h (0 Bft)
21.11.2014 06:35 1,9 C 97 % 1022,1 hPa 0,0 l/m 0,0 km/h (0 Bft) SO 135 1,5 C 7,8 C 0,0 km/h (0 Bft)
21.11.2014 06:40 1,8 C 97 % 1021,9 hPa 0,0 l/m 0,0 km/h (0 Bft) SO 135 1,4 C 7,8 C 0,0 km/h (0 Bft)
21.11.2014 06:45 1,8 C 97 % 1021,9 hPa 0,0 l/m 0,0 km/h (0 Bft) SO 135 1,4 C 7,8 C 0,0 km/h (0 Bft)
21.11.2014 06:50 1,8 C 97 % 1021,9 hPa 0,0 l/m 0,0 km/h (0 Bft) SO 135 1,4 C 7,8 C 0,0 km/h (0 Bft)
21.11.2014 06:55 1,8 C 97 % 1021,9 hPa 0,0 l/m 0,0 km/h (0 Bft) SO 135 1,4 C 7,8 C 0,0 km/h (0 Bft)
21.11.2014 07:00 1,8 C 97 % 1021,7 hPa 0,0 l/m 0,0 km/h (0 Bft) SO 135 1,4 C 7,8 C 0,0 km/h (0 Bft)
21.11.2014 07:05 1,8 C 97 % 1021,7 hPa 0,0 l/m 0,0 km/h (0 Bft) SO 135 1,4 C 7,8 C 0,0 km/h (0 Bft)
21.11.2014 07:10 1,8 C 97 % 1021,7 hPa 0,0 l/m 0,0 km/h (0 Bft) SO 135 1,4 C 7,8 C 0,0 km/h (0 Bft)
21.11.2014 07:15 1,9 C 97 % 1021,7 hPa 0,0 l/m 0,0 km/h (0 Bft) SO 135 1,5 C 7,8 C 0,0 km/h (0 Bft)
21.11.2014 07:20 1,9 C 97 % 1021,9 hPa 0,0 l/m 0,0 km/h (0 Bft) SO 135 1,5 C 7,8 C 0,0 km/h (0 Bft)
21.11.2014 07:25 1,9 C 97 % 1021,9 hPa 0,0 l/m 0,0 km/h (0 Bft) SO 135 1,5 C 7,8 C 0,0 km/h (0 Bft)
21.11.2014 07:30 1,9 C 97 % 1021,9 hPa 0,0 l/m 0,0 km/h (0 Bft) SO 135 1,5 C 7,8 C 0,0 km/h (0 Bft)
21.11.2014 07:35 1,9 C 97 % 1021,9 hPa 0,0 l/m 0,0 km/h (0 Bft) SO 135 1,5 C 7,8 C 0,0 km/h (0 Bft)
21.11.2014 07:40 1,9 C 97 % 1022,1 hPa 0,0 l/m 0,0 km/h (0 Bft) SO 135 1,5 C 7,8 C 0,0 km/h (0 Bft)
21.11.2014 07:45 1,9 C 97 % 1022,1 hPa 0,0 l/m 0,0 km/h (0 Bft) SO 135 1,5 C 7,8 C 0,0 km/h (0 Bft)
21.11.2014 07:50 1,9 C 97 % 1022,1 hPa 0,0 l/m 0,0 km/h (0 Bft) SO 135 1,5 C 7,8 C 0,0 km/h (0 Bft)
21.11.2014 07:55 1,9 C 97 % 1022,1 hPa 0,0 l/m 0,0 km/h (0 Bft) SO 135 1,5 C 7,8 C 0,0 km/h (0 Bft)
21.11.2014 08:00 2,0 C 97 % 1022,1 hPa 0,0 l/m 0,0 km/h (0 Bft) SO 135 1,6 C 7,8 C 0,0 km/h (0 Bft)
21.11.2014 08:05 2,1 C 97 % 1022,1 hPa 0,0 l/m 0,0 km/h (0 Bft) SO 135 1,7 C 7,8 C 0,0 km/h (0 Bft)
21.11.2014 08:10 2,1 C 97 % 1022,1 hPa 0,0 l/m 0,0 km/h (0 Bft) SO 135 1,7 C 7,8 C 0,0 km/h (0 Bft)
21.11.2014 08:15 2,1 C 97 % 1022,1 hPa 0,0 l/m 0,0 km/h (0 Bft) SO 135 1,7 C 7,8 C 0,0 km/h (0 Bft)
21.11.2014 08:20 2,1 C 97 % 1022,1 hPa 0,0 l/m 0,0 km/h (0 Bft) SO 135 1,7 C 7,8 C 0,0 km/h (0 Bft)
21.11.2014 08:25 2,2 C 97 % 1022,1 hPa 0,0 l/m 0,0 km/h (0 Bft) SO 135 1,8 C 7,8 C 0,0 km/h (0 Bft)
21.11.2014 08:30 2,2 C 97 % 1022,1 hPa 0,0 l/m 0,0 km/h (0 Bft) SO 135 1,8 C 7,8 C 0,0 km/h (0 Bft)
21.11.2014 08:35 2,3 C 97 % 1022,1 hPa 0,0 l/m 0,0 km/h (0 Bft) SO 135 1,9 C 7,8 C 0,0 km/h (0 Bft)
21.11.2014 08:40 2,4 C 97 % 1021,9 hPa 0,0 l/m 0,0 km/h (0 Bft) SO 135 2,0 C 7,8 C 0,0 km/h (0 Bft)
21.11.2014 08:45 2,4 C 97 % 1021,9 hPa 0,0 l/m 0,0 km/h (0 Bft) SO 135 2,0 C 7,8 C 0,0 km/h (0 Bft)
21.11.2014 08:50 2,5 C 97 % 1021,9 hPa 0,0 l/m 0,0 km/h (0 Bft) SO 135 2,1 C 7,8 C 0,0 km/h (0 Bft)
21.11.2014 08:55 2,7 C 97 % 1021,9 hPa 0,0 l/m 0,0 km/h (0 Bft) SO 135 2,3 C 7,8 C 0,0 km/h (0 Bft)
21.11.2014 09:00 2,8 C 97 % 1022,1 hPa 0,0 l/m 0,0 km/h (0 Bft) SO 135 2,4 C 7,8 C 0,0 km/h (0 Bft)
21.11.2014 09:05 2,8 C 97 % 1022,1 hPa 0,0 l/m 0,0 km/h (0 Bft) SO 135 2,4 C 7,8 C 0,0 km/h (0 Bft)
21.11.2014 09:10 2,9 C 97 % 1022,1 hPa 0,0 l/m 0,0 km/h (0 Bft) SO 135 2,5 C 7,8 C 0,0 km/h (0 Bft)
21.11.2014 09:15 3,1 C 96 % 1022,1 hPa 0,0 l/m 0,0 km/h (0 Bft) SO 135 2,5 C 7,8 C 0,0 km/h (0 Bft)
21.11.2014 09:20 3,2 C 96 % 1021,8 hPa 0,0 l/m 0,0 km/h (0 Bft) SO 135 2,6 C 7,8 C 0,0 km/h (0 Bft)
21.11.2014 09:25 3,4 C 96 % 1021,8 hPa 0,0 l/m 0,0 km/h (0 Bft) SO 135 2,8 C 7,8 C 0,0 km/h (0 Bft)
21.11.2014 09:30 3,4 C 96 % 1021,8 hPa 0,0 l/m 0,0 km/h (0 Bft) SO 135 2,8 C 7,8 C 0,0 km/h (0 Bft)
21.11.2014 09:35 3,5 C 96 % 1021,8 hPa 0,0 l/m 0,0 km/h (0 Bft) SO 135 2,9 C 7,8 C 0,0 km/h (0 Bft)
21.11.2014 09:40 3,6 C 96 % 1021,8 hPa 0,0 l/m 0,0 km/h (0 Bft) SO 135 3,0 C 7,8 C 0,0 km/h (0 Bft)
21.11.2014 09:45 3,6 C 96 % 1021,8 hPa 0,0 l/m 0,0 km/h (0 Bft) SO 135 3,0 C 7,8 C 0,0 km/h (0 Bft)
21.11.2014 09:50 3,8 C 96 % 1021,8 hPa 0,0 l/m 0,0 km/h (0 Bft) SO 135 3,2 C 7,8 C 0,0 km/h (0 Bft)
21.11.2014 09:55 3,9 C 96 % 1021,8 hPa 0,0 l/m 0,0 km/h (0 Bft) SO 135 3,3 C 7,8 C 0,0 km/h (0 Bft)
21.11.2014 10:00 4,2 C 96 % 1022,1 hPa 0,0 l/m 0,0 km/h (0 Bft) SO 135 3,6 C 7,8 C 0,0 km/h (0 Bft)
21.11.2014 10:05 4,8 C 96 % 1022,1 hPa 0,0 l/m 0,0 km/h (0 Bft) SO 135 4,2 C 7,8 C 0,0 km/h (0 Bft)
21.11.2014 10:10 5,0 C 96 % 1022,1 hPa 0,0 l/m 0,0 km/h (0 Bft) SO 135 4,4 C 7,8 C 0,0 km/h (0 Bft)
21.11.2014 10:15 4,6 C 95 % 1022,1 hPa 0,0 l/m 0,0 km/h (0 Bft) SO 135 3,9 C 7,8 C 0,0 km/h (0 Bft)
21.11.2014 10:20 4,8 C 95 % 1021,8 hPa 0,0 l/m 0,0 km/h (0 Bft) SO 135 4,1 C 7,8 C 0,0 km/h (0 Bft)
21.11.2014 10:25 4,7 C 95 % 1021,8 hPa 0,0 l/m 0,0 km/h (0 Bft) SO 135 4,0 C 7,8 C 0,0 km/h (0 Bft)
21.11.2014 10:30 5,0 C 95 % 1021,8 hPa 0,0 l/m 0,0 km/h (0 Bft) SO 135 4,3 C 7,8 C 0,0 km/h (0 Bft)
21.11.2014 10:35 5,2 C 95 % 1021,8 hPa 0,0 l/m 0,0 km/h (0 Bft) SO 135 4,5 C 7,8 C 0,0 km/h (0 Bft)
21.11.2014 10:40 5,2 C 94 % 1021,6 hPa 0,0 l/m 0,0 km/h (0 Bft) SO 135 4,3 C 7,8 C 0,0 km/h (0 Bft)
21.11.2014 10:45 5,1 C 93 % 1021,6 hPa 0,0 l/m 0,0 km/h (0 Bft) SO 135 4,1 C 7,8 C 0,0 km/h (0 Bft)
21.11.2014 10:50 5,2 C 93 % 1021,6 hPa 0,0 l/m 0,0 km/h (0 Bft) SO 135 4,2 C 7,8 C 0,0 km/h (0 Bft)
21.11.2014 10:55 5,2 C 93 % 1021,6 hPa 0,0 l/m 0,0 km/h (0 Bft) SO 135 4,2 C 7,8 C 0,0 km/h (0 Bft)
21.11.2014 11:00 5,6 C 93 % 1021,7 hPa 0,0 l/m 0,0 km/h (0 Bft) SO 135 4,6 C 7,8 C 0,0 km/h (0 Bft)
21.11.2014 11:05 5,7 C 92 % 1021,7 hPa 0,0 l/m 0,0 km/h (0 Bft) SO 135 4,5 C 7,8 C 0,0 km/h (0 Bft)
21.11.2014 11:10 5,7 C 91 % 1021,7 hPa 0,0 l/m 0,0 km/h (0 Bft) SO 135 4,3 C 7,8 C 0,0 km/h (0 Bft)
21.11.2014 11:15 5,8 C 91 % 1021,7 hPa 0,0 l/m 0,0 km/h (0 Bft) SO 135 4,4 C 7,8 C 0,0 km/h (0 Bft)
21.11.2014 11:20 5,6 C 90 % 1021,5 hPa 0,0 l/m 0,0 km/h (0 Bft) SO 135 4,1 C 7,8 C 0,0 km/h (0 Bft)
21.11.2014 11:25 5,9 C 90 % 1021,5 hPa 0,0 l/m 0,0 km/h (0 Bft) SO 135 4,4 C 7,8 C 0,0 km/h (0 Bft)
21.11.2014 11:30 6,2 C 90 % 1021,5 hPa 0,0 l/m 0,0 km/h (0 Bft) SO 135 4,7 C 7,8 C 0,0 km/h (0 Bft)
21.11.2014 11:35 5,7 C 89 % 1021,5 hPa 0,0 l/m 0,0 km/h (0 Bft) SO 135 4,0 C 7,8 C 0,0 km/h (0 Bft)
21.11.2014 11:40 5,6 C 88 % 1021,2 hPa 0,0 l/m 0,0 km/h (0 Bft) SO 135 3,8 C 7,8 C 0,0 km/h (0 Bft)
21.11.2014 11:45 5,8 C 88 % 1021,2 hPa 0,0 l/m 0,0 km/h (0 Bft) SO 135 4,0 C 7,8 C 0,0 km/h (0 Bft)
21.11.2014 11:48 6,1 C 88 % 1021,2 hPa 0,0 l/m 0,0 km/h (0 Bft) SO 135 4,3 C 7,8 C 0,0 km/h (0 Bft)
21.11.2014 11:50 6,1 C 88 % 1021,2 hPa 0,0 l/m 0,0 km/h (0 Bft) SO 135 4,3 C 7,8 C 0,0 km/h (0 Bft)
21.11.2014 11:55 6,2 C 87 % 1021,2 hPa 0,0 l/m 0,0 km/h (0 Bft) SO 135 4,2 C 7,8 C 0,0 km/h (0 Bft)
21.11.2014 12:00 6,2 C 85 % 1021,3 hPa 0,0 l/m 0,0 km/h (0 Bft) SO 135 3,9 C 7,8 C 0,0 km/h (0 Bft)
21.11.2014 12:05 6,4 C 83 % 1021,3 hPa 0,0 l/m 0,0 km/h (0 Bft) SO 135 3,7 C 7,8 C 0,0 km/h (0 Bft)
21.11.2014 12:10 6,7 C 83 % 1021,3 hPa 0,0 l/m 0,0 km/h (0 Bft) SO 135 4,0 C 7,8 C 0,0 km/h (0 Bft)
21.11.2014 12:15 6,8 C 80 % 1021,3 hPa 0,0 l/m 0,0 km/h (0 Bft) SO 135 3,6 C 7,8 C 0,0 km/h (0 Bft)
21.11.2014 12:20 7,0 C 80 % 1021,6 hPa 0,0 l/m 0,0 km/h (0 Bft) SO 135 3,8 C 7,8 C 0,0 km/h (0 Bft)
21.11.2014 12:25 7,2 C 80 % 1021,6 hPa 0,0 l/m 0,0 km/h (0 Bft) SO 135 4,0 C 7,8 C 0,0 km/h (0 Bft)
21.11.2014 12:30 7,0 C 79 % 1021,6 hPa 0,0 l/m 0,0 km/h (0 Bft) SO 135 3,6 C 7,8 C 0,0 km/h (0 Bft)
21.11.2014 12:35 7,1 C 76 % 1021,6 hPa 0,0 l/m 0,0 km/h (0 Bft) SO 135 3,2 C 7,8 C 0,0 km/h (0 Bft)
21.11.2014 12:40 7,2 C 76 % 1021,4 hPa 0,0 l/m 0,0 km/h (0 Bft) SO 135 3,3 C 7,8 C 0,0 km/h (0 Bft)
21.11.2014 12:45 7,6 C 79 % 1021,4 hPa 0,0 l/m 0,0 km/h (0 Bft) SO 135 4,2 C 7,8 C 0,0 km/h (0 Bft)
21.11.2014 12:50 7,7 C 80 % 1021,4 hPa 0,0 l/m 0,0 km/h (0 Bft) SO 135 4,5 C 7,8 C 0,0 km/h (0 Bft)
21.11.2014 12:55 7,6 C 80 % 1021,4 hPa 0,0 l/m 0,0 km/h (0 Bft) SO 135 4,4 C 7,8 C 0,0 km/h (0 Bft)
21.11.2014 13:00 7,6 C 79 % 1021,1 hPa 0,0 l/m 0,0 km/h (0 Bft) SO 135 4,2 C 7,8 C 0,0 km/h (0 Bft)
21.11.2014 13:05 7,6 C 77 % 1021,1 hPa 0,0 l/m 0,0 km/h (0 Bft) SO 135 3,8 C 7,8 C 0,0 km/h (0 Bft)
21.11.2014 13:10 7,8 C 78 % 1021,1 hPa 0,0 l/m 0,0 km/h (0 Bft) SO 135 4,2 C 7,8 C 0,0 km/h (0 Bft)
21.11.2014 13:15 7,7 C 78 % 1021,1 hPa 0,0 l/m 0,0 km/h (0 Bft) SO 135 4,1 C 7,8 C 0,0 km/h (0 Bft)
21.11.2014 13:20 7,8 C 78 % 1021,3 hPa 0,0 l/m 0,0 km/h (0 Bft) SO 135 4,2 C 7,8 C 0,0 km/h (0 Bft)
21.11.2014 13:25 8,2 C 78 % 1021,3 hPa 0,0 l/m 0,0 km/h (0 Bft) SO 135 4,6 C 7,8 C 0,0 km/h (0 Bft)
21.11.2014 13:30 7,8 C 77 % 1021,3 hPa 0,0 l/m 0,0 km/h (0 Bft) SO 135 4,0 C 7,8 C 0,0 km/h (0 Bft)
21.11.2014 13:35 7,6 C 77 % 1021,3 hPa 0,0 l/m 0,0 km/h (0 Bft) SO 135 3,8 C 7,8 C 0,0 km/h (0 Bft)
21.11.2014 13:40 7,6 C 78 % 1021,2 hPa 0,0 l/m 0,0 km/h (0 Bft) SO 135 4,0 C 7,8 C 0,0 km/h (0 Bft)
21.11.2014 13:45 7,7 C 79 % 1021,2 hPa 0,0 l/m 0,0 km/h (0 Bft) SO 135 4,3 C 7,8 C 0,0 km/h (0 Bft)
21.11.2014 13:50 7,6 C 79 % 1021,2 hPa 0,0 l/m 0,0 km/h (0 Bft) SO 135 4,2 C 7,8 C 0,0 km/h (0 Bft)
21.11.2014 13:55 7,4 C 78 % 1021,2 hPa 0,0 l/m 0,0 km/h (0 Bft) SO 135 3,8 C 7,8 C 0,0 km/h (0 Bft)
21.11.2014 14:00 7,5 C 79 % 1021,0 hPa 0,0 l/m 0,0 km/h (0 Bft) SO 135 4,1 C 7,8 C 0,0 km/h (0 Bft)
21.11.2014 14:05 7,5 C 79 % 1021,0 hPa 0,0 l/m 0,0 km/h (0 Bft) SO 135 4,1 C 7,8 C 0,0 km/h (0 Bft)
21.11.2014 14:10 7,5 C 78 % 1021,0 hPa 0,0 l/m 0,0 km/h (0 Bft) SO 135 3,9 C 7,8 C 0,0 km/h (0 Bft)
21.11.2014 14:15 7,5 C 78 % 1021,0 hPa 0,0 l/m 0,0 km/h (0 Bft) SO 135 3,9 C 7,8 C 0,0 km/h (0 Bft)
21.11.2014 14:20 7,6 C 78 % 1021,1 hPa 0,0 l/m 0,0 km/h (0 Bft) SO 135 4,0 C 7,8 C 0,0 km/h (0 Bft)
21.11.2014 14:25 7,6 C 78 % 1021,1 hPa 0,0 l/m 0,0 km/h (0 Bft) SO 135 4,0 C 7,8 C 0,0 km/h (0 Bft)
21.11.2014 14:30 7,7 C 79 % 1021,1 hPa 0,0 l/m 0,0 km/h (0 Bft) SO 135 4,3 C 7,8 C 0,0 km/h (0 Bft)
21.11.2014 14:35 7,7 C 79 % 1021,1 hPa 0,0 l/m 0,0 km/h (0 Bft) SO 135 4,3 C 7,8 C 0,0 km/h (0 Bft)
21.11.2014 14:40 7,5 C 79 % 1021,1 hPa 0,0 l/m 0,0 km/h (0 Bft) SO 135 4,1 C 7,8 C 0,0 km/h (0 Bft)
21.11.2014 14:43 7,4 C 79 % 1021,1 hPa 0,0 l/m 0,0 km/h (0 Bft) SO 135 4,0 C 7,8 C 0,0 km/h (0 Bft)
21.11.2014 14:50 7,2 C 79 % 1021,1 hPa 0,0 l/m 0,0 km/h (0 Bft) SO 135 3,8 C 7,8 C 0,0 km/h (0 Bft)
21.11.2014 14:55 7,2 C 80 % 1021,1 hPa 0,0 l/m 0,0 km/h (0 Bft) SO 135 4,0 C 7,8 C 0,0 km/h (0 Bft)
21.11.2014 15:00 7,1 C 80 % 1021,1 hPa 0,0 l/m 0,0 km/h (0 Bft) SO 135 3,9 C 7,8 C 0,0 km/h (0 Bft)
21.11.2014 15:05 7,2 C 80 % 1021,1 hPa 0,0 l/m 0,0 km/h (0 Bft) SO 135 4,0 C 7,8 C 0,0 km/h (0 Bft)
21.11.2014 15:10 7,0 C 80 % 1021,1 hPa 0,0 l/m 0,0 km/h (0 Bft) SO 135 3,8 C 7,8 C 0,0 km/h (0 Bft)
21.11.2014 15:15 6,8 C 81 % 1021,1 hPa 0,0 l/m 0,0 km/h (0 Bft) SO 135 3,8 C 7,8 C 0,0 km/h (0 Bft)
21.11.2014 15:20 6,6 C 81 % 1021,4 hPa 0,0 l/m 0,0 km/h (0 Bft) SO 135 3,6 C 7,8 C 0,0 km/h (0 Bft)
21.11.2014 15:25 6,5 C 82 % 1021,4 hPa 0,0 l/m 0,0 km/h (0 Bft) SO 135 3,7 C 7,8 C 0,0 km/h (0 Bft)
21.11.2014 15:30 6,4 C 82 % 1021,4 hPa 0,0 l/m 0,0 km/h (0 Bft) SO 135 3,6 C 7,8 C 0,0 km/h (0 Bft)
21.11.2014 15:35 6,4 C 83 % 1021,4 hPa 0,0 l/m 0,0 km/h (0 Bft) SO 135 3,7 C 7,8 C 0,0 km/h (0 Bft)
21.11.2014 15:40 6,4 C 83 % 1021,5 hPa 0,0 l/m 0,0 km/h (0 Bft) SO 135 3,7 C 7,8 C 0,0 km/h (0 Bft)
21.11.2014 15:45 6,4 C 84 % 1021,5 hPa 0,0 l/m 0,0 km/h (0 Bft) SO 135 3,9 C 7,8 C 0,0 km/h (0 Bft)
21.11.2014 15:50 6,3 C 84 % 1021,5 hPa 0,0 l/m 0,0 km/h (0 Bft) SO 135 3,8 C 7,8 C 0,0 km/h (0 Bft)
21.11.2014 15:55 6,3 C 84 % 1021,5 hPa 0,0 l/m 0,0 km/h (0 Bft) SO 135 3,8 C 7,8 C 0,0 km/h (0 Bft)
21.11.2014 16:00 6,2 C 84 % 1021,2 hPa 0,0 l/m 0,0 km/h (0 Bft) SO 135 3,7 C 7,8 C 0,0 km/h (0 Bft)
21.11.2014 16:05 6,1 C 84 % 1021,2 hPa 0,0 l/m 0,0 km/h (0 Bft) SO 135 3,6 C 7,8 C 0,0 km/h (0 Bft)
21.11.2014 16:10 6,1 C 85 % 1021,2 hPa 0,0 l/m 0,0 km/h (0 Bft) SO 135 3,8 C 7,8 C 0,0 km/h (0 Bft)
21.11.2014 16:15 5,9 C 86 % 1021,2 hPa 0,0 l/m 0,0 km/h (0 Bft) SO 135 3,7 C 7,8 C 0,0 km/h (0 Bft)
21.11.2014 16:20 5,8 C 86 % 1021,2 hPa 0,0 l/m 0,0 km/h (0 Bft) SO 135 3,6 C 7,8 C 0,0 km/h (0 Bft)
21.11.2014 16:25 5,8 C 86 % 1021,2 hPa 0,0 l/m 0,0 km/h (0 Bft) SO 135 3,6 C 7,8 C 0,0 km/h (0 Bft)
21.11.2014 16:30 5,8 C 86 % 1021,2 hPa 0,0 l/m 0,0 km/h (0 Bft) SO 135 3,6 C 7,8 C 0,0 km/h (0 Bft)
21.11.2014 16:35 5,7 C 87 % 1021,2 hPa 0,0 l/m 0,0 km/h (0 Bft) SO 135 3,7 C 7,8 C 0,0 km/h (0 Bft)
21.11.2014 16:40 5,6 C 87 % 1021,4 hPa 0,0 l/m 0,0 km/h (0 Bft) SO 135 3,6 C 7,8 C 0,0 km/h (0 Bft)
21.11.2014 16:45 5,5 C 87 % 1021,4 hPa 0,0 l/m 0,0 km/h (0 Bft) SO 135 3,5 C 7,8 C 0,0 km/h (0 Bft)
21.11.2014 16:50 5,5 C 87 % 1021,4 hPa 0,0 l/m 0,0 km/h (0 Bft) SO 135 3,5 C 7,8 C 0,0 km/h (0 Bft)
21.11.2014 16:55 5,4 C 87 % 1021,4 hPa 0,0 l/m 0,0 km/h (0 Bft) SO 135 3,4 C 7,8 C 0,0 km/h (0 Bft)
21.11.2014 17:00 5,4 C 87 % 1021,2 hPa 0,0 l/m 0,0 km/h (0 Bft) SO 135 3,4 C 7,8 C 0,0 km/h (0 Bft)
21.11.2014 17:05 5,4 C 88 % 1021,2 hPa 0,0 l/m 0,0 km/h (0 Bft) SO 135 3,6 C 7,8 C 0,0 km/h (0 Bft)
21.11.2014 17:10 5,4 C 88 % 1021,2 hPa 0,0 l/m 0,0 km/h (0 Bft) SO 135 3,6 C 7,8 C 0,0 km/h (0 Bft)
21.11.2014 17:15 5,3 C 88 % 1021,2 hPa 0,0 l/m 0,0 km/h (0 Bft) SO 135 3,5 C 7,8 C 0,0 km/h (0 Bft)
21.11.2014 17:20 5,3 C 88 % 1020,9 hPa 0,0 l/m 0,0 km/h (0 Bft) SO 135 3,5 C 7,8 C 0,0 km/h (0 Bft)
21.11.2014 17:25 5,2 C 88 % 1020,9 hPa 0,0 l/m 0,0 km/h (0 Bft) SO 135 3,4 C 7,8 C 0,0 km/h (0 Bft)
21.11.2014 17:30 5,2 C 88 % 1020,9 hPa 0,0 l/m 0,0 km/h (0 Bft) SO 135 3,4 C 7,8 C 0,0 km/h (0 Bft)
21.11.2014 17:35 5,2 C 89 % 1020,9 hPa 0,0 l/m 0,0 km/h (0 Bft) SO 135 3,5 C 7,8 C 0,0 km/h (0 Bft)
21.11.2014 17:40 5,3 C 89 % 1020,6 hPa 0,0 l/m 0,0 km/h (0 Bft) SO 135 3,6 C 7,8 C 0,0 km/h (0 Bft)
21.11.2014 17:43 5,2 C 89 % 1020,6 hPa 0,0 l/m 0,0 km/h (0 Bft) SO 135 3,5 C 7,8 C 0,0 km/h (0 Bft)
21.11.2014 17:45 5,2 C 89 % 1020,6 hPa 0,0 l/m 0,0 km/h (0 Bft) SO 135 3,5 C 7,8 C 0,0 km/h (0 Bft)
21.11.2014 17:50 5,2 C 89 % 1020,6 hPa 0,0 l/m 0,0 km/h (0 Bft) SO 135 3,5 C 7,8 C 0,0 km/h (0 Bft)
21.11.2014 17:55 5,1 C 89 % 1020,6 hPa 0,0 l/m 0,0 km/h (0 Bft) SO 135 3,4 C 7,8 C 0,0 km/h (0 Bft)
21.11.2014 18:00 5,1 C 89 % 1020,9 hPa 0,0 l/m 0,0 km/h (0 Bft) SO 135 3,4 C 7,8 C 0,0 km/h (0 Bft)
21.11.2014 18:05 5,1 C 90 % 1020,9 hPa 0,0 l/m 0,0 km/h (0 Bft) SO 135 3,6 C 7,8 C 0,0 km/h (0 Bft)
21.11.2014 18:10 5,1 C 90 % 1020,9 hPa 0,0 l/m 0,0 km/h (0 Bft) SO 135 3,6 C 7,8 C 0,0 km/h (0 Bft)
21.11.2014 18:15 5,1 C 91 % 1020,9 hPa 0,0 l/m 0,0 km/h (0 Bft) SO 135 3,8 C 7,8 C 0,0 km/h (0 Bft)
21.11.2014 18:20 5,1 C 91 % 1020,6 hPa 0,0 l/m 0,0 km/h (0 Bft) SO 135 3,8 C 7,8 C 0,0 km/h (0 Bft)
21.11.2014 18:25 5,1 C 91 % 1020,6 hPa 0,0 l/m 0,0 km/h (0 Bft) SO 135 3,8 C 7,8 C 0,0 km/h (0 Bft)
21.11.2014 18:30 5,1 C 92 % 1020,6 hPa 0,0 l/m 0,0 km/h (0 Bft) SO 135 3,9 C 7,8 C 0,0 km/h (0 Bft)
21.11.2014 18:35 5,1 C 92 % 1020,6 hPa 0,0 l/m 0,0 km/h (0 Bft) SO 135 3,9 C 7,8 C 0,0 km/h (0 Bft)
21.11.2014 18:40 5,1 C 92 % 1020,8 hPa 0,0 l/m 0,0 km/h (0 Bft) SO 135 3,9 C 7,8 C 0,0 km/h (0 Bft)
21.11.2014 18:45 5,1 C 93 % 1020,8 hPa 0,0 l/m 0,0 km/h (0 Bft) SO 135 4,1 C 7,8 C 0,0 km/h (0 Bft)
21.11.2014 18:50 5,1 C 93 % 1020,8 hPa 0,0 l/m 0,0 km/h (0 Bft) SO 135 4,1 C 7,8 C 0,0 km/h (0 Bft)
21.11.2014 18:55 5,1 C 93 % 1020,8 hPa 0,0 l/m 0,0 km/h (0 Bft) SO 135 4,1 C 7,8 C 0,0 km/h (0 Bft)
21.11.2014 19:00 5,1 C 94 % 1020,7 hPa 0,0 l/m 0,0 km/h (0 Bft) SO 135 4,2 C 7,8 C 0,0 km/h (0 Bft)
21.11.2014 19:05 5,2 C 94 % 1020,7 hPa 0,0 l/m 0,0 km/h (0 Bft) SO 135 4,3 C 7,8 C 0,0 km/h (0 Bft)
21.11.2014 19:10 5,3 C 94 % 1020,7 hPa 0,0 l/m 0,0 km/h (0 Bft) SO 135 4,4 C 7,8 C 0,0 km/h (0 Bft)
21.11.2014 19:15 5,2 C 94 % 1020,7 hPa 0,0 l/m 0,0 km/h (0 Bft) SO 135 4,3 C 7,8 C 0,0 km/h (0 Bft)
21.11.2014 19:20 5,1 C 94 % 1020,9 hPa 0,0 l/m 0,0 km/h (0 Bft) SO 135 4,2 C 7,8 C 0,0 km/h (0 Bft)
21.11.2014 19:25 5,2 C 94 % 1020,9 hPa 0,0 l/m 0,0 km/h (0 Bft) SO 135 4,3 C 7,8 C 0,0 km/h (0 Bft)
21.11.2014 19:30 5,2 C 94 % 1020,9 hPa 0,0 l/m 0,0 km/h (0 Bft) SO 135 4,3 C 7,8 C 0,0 km/h (0 Bft)
21.11.2014 19:35 5,2 C 95 % 1020,9 hPa 0,0 l/m 0,0 km/h (0 Bft) SO 135 4,5 C 7,8 C 0,0 km/h (0 Bft)
21.11.2014 19:40 5,1 C 95 % 1020,9 hPa 0,0 l/m 0,0 km/h (0 Bft) SO 135 4,4 C 7,8 C 0,0 km/h (0 Bft)
21.11.2014 19:45 5,2 C 95 % 1020,9 hPa 0,0 l/m 0,0 km/h (0 Bft) SO 135 4,5 C 7,8 C 0,0 km/h (0 Bft)
21.11.2014 19:50 5,1 C 95 % 1020,9 hPa 0,0 l/m 0,0 km/h (0 Bft) SO 135 4,4 C 7,8 C 0,0 km/h (0 Bft)
21.11.2014 19:55 5,1 C 95 % 1020,9 hPa 0,0 l/m 0,0 km/h (0 Bft) SO 135 4,4 C 7,8 C 0,0 km/h (0 Bft)
21.11.2014 20:00 5,1 C 95 % 1021,0 hPa 0,0 l/m 0,0 km/h (0 Bft) SO 135 4,4 C 7,8 C 0,0 km/h (0 Bft)
21.11.2014 20:05 5,1 C 95 % 1021,0 hPa 0,0 l/m 0,0 km/h (0 Bft) SO 135 4,4 C 7,8 C 0,0 km/h (0 Bft)
21.11.2014 20:10 5,2 C 95 % 1021,0 hPa 0,0 l/m 0,0 km/h (0 Bft) SO 135 4,5 C 7,8 C 0,0 km/h (0 Bft)
21.11.2014 20:15 5,1 C 95 % 1021,0 hPa 0,0 l/m 0,0 km/h (0 Bft) SO 135 4,4 C 7,8 C 0,0 km/h (0 Bft)
21.11.2014 20:20 5,1 C 95 % 1020,9 hPa 0,0 l/m 0,0 km/h (0 Bft) SO 135 4,4 C 7,8 C 0,0 km/h (0 Bft)
21.11.2014 20:25 5,1 C 95 % 1020,9 hPa 0,0 l/m 0,0 km/h (0 Bft) SO 135 4,4 C 7,8 C 0,0 km/h (0 Bft)
21.11.2014 20:30 5,0 C 95 % 1020,9 hPa 0,0 l/m 0,0 km/h (0 Bft) SO 135 4,3 C 7,8 C 0,0 km/h (0 Bft)
21.11.2014 20:35 5,1 C 95 % 1020,9 hPa 0,0 l/m 0,0 km/h (0 Bft) SO 135 4,4 C 7,8 C 0,0 km/h (0 Bft)
21.11.2014 20:40 5,1 C 95 % 1021,0 hPa 0,0 l/m 0,0 km/h (0 Bft) SO 135 4,4 C 7,8 C 0,0 km/h (0 Bft)
21.11.2014 20:43 5,2 C 95 % 1021,0 hPa 0,0 l/m 0,0 km/h (0 Bft) SO 135 4,5 C 7,8 C 0,0 km/h (0 Bft)
21.11.2014 20:45 5,2 C 95 % 1021,0 hPa 0,0 l/m 0,0 km/h (0 Bft) SO 135 4,5 C 7,8 C 0,0 km/h (0 Bft)
21.11.2014 20:50 5,1 C 95 % 1021,0 hPa 0,0 l/m 0,0 km/h (0 Bft) SO 135 4,4 C 7,8 C 0,0 km/h (0 Bft)
21.11.2014 20:55 5,0 C 95 % 1021,0 hPa 0,0 l/m 0,0 km/h (0 Bft) SO 135 4,3 C 7,8 C 0,0 km/h (0 Bft)
21.11.2014 21:00 5,0 C 95 % 1020,9 hPa 0,0 l/m 0,0 km/h (0 Bft) SO 135 4,3 C 7,8 C 0,0 km/h (0 Bft)
21.11.2014 21:05 5,0 C 95 % 1020,9 hPa 0,0 l/m 0,0 km/h (0 Bft) SO 135 4,3 C 7,8 C 0,0 km/h (0 Bft)
21.11.2014 21:10 5,0 C 95 % 1020,9 hPa 0,0 l/m 0,0 km/h (0 Bft) SO 135 4,3 C 7,8 C 0,0 km/h (0 Bft)
21.11.2014 21:15 5,0 C 95 % 1020,9 hPa 0,0 l/m 0,0 km/h (0 Bft) SO 135 4,3 C 7,8 C 0,0 km/h (0 Bft)
21.11.2014 21:20 5,0 C 95 % 1020,9 hPa 0,0 l/m 0,0 km/h (0 Bft) SO 135 4,3 C 7,8 C 0,0 km/h (0 Bft)
21.11.2014 21:25 5,0 C 95 % 1020,9 hPa 0,0 l/m 0,0 km/h (0 Bft) SO 135 4,3 C 7,8 C 0,0 km/h (0 Bft)
21.11.2014 21:30 5,1 C 96 % 1020,9 hPa 0,0 l/m 0,0 km/h (0 Bft) SO 135 4,5 C 7,8 C 0,0 km/h (0 Bft)
21.11.2014 21:35 5,1 C 96 % 1020,9 hPa 0,0 l/m 0,0 km/h (0 Bft) SO 135 4,5 C 7,8 C 0,0 km/h (0 Bft)
21.11.2014 21:40 5,2 C 96 % 1020,8 hPa 0,0 l/m 0,0 km/h (0 Bft) SO 135 4,6 C 7,8 C 0,0 km/h (0 Bft)
21.11.2014 21:45 5,3 C 96 % 1020,8 hPa 0,0 l/m 0,0 km/h (0 Bft) SO 135 4,7 C 7,8 C 0,0 km/h (0 Bft)
21.11.2014 21:50 5,3 C 96 % 1020,8 hPa 0,0 l/m 0,0 km/h (0 Bft) SO 135 4,7 C 7,8 C 0,0 km/h (0 Bft)
21.11.2014 21:55 5,3 C 96 % 1020,8 hPa 0,0 l/m 0,0 km/h (0 Bft) SO 135 4,7 C 7,8 C 0,0 km/h (0 Bft)
21.11.2014 22:00 5,3 C 96 % 1020,8 hPa 0,0 l/m 0,0 km/h (0 Bft) SO 135 4,7 C 7,8 C 0,0 km/h (0 Bft)
21.11.2014 22:05 5,3 C 96 % 1020,8 hPa 0,0 l/m 0,0 km/h (0 Bft) SO 135 4,7 C 7,8 C 0,0 km/h (0 Bft)
21.11.2014 22:10 5,3 C 96 % 1020,8 hPa 0,0 l/m 0,0 km/h (0 Bft) SO 135 4,7 C 7,8 C 0,0 km/h (0 Bft)
21.11.2014 22:15 5,3 C 96 % 1020,8 hPa 0,0 l/m 0,0 km/h (0 Bft) SO 135 4,7 C 7,8 C 0,0 km/h (0 Bft)
21.11.2014 22:20 5,3 C 96 % 1020,8 hPa 0,0 l/m 0,0 km/h (0 Bft) SO 135 4,7 C 7,8 C 0,0 km/h (0 Bft)
21.11.2014 22:25 5,3 C 96 % 1020,8 hPa 0,0 l/m 0,0 km/h (0 Bft) SO 135 4,7 C 7,8 C 0,0 km/h (0 Bft)
21.11.2014 22:30 5,3 C 96 % 1020,8 hPa 0,0 l/m 0,0 km/h (0 Bft) SO 135 4,7 C 7,8 C 0,0 km/h (0 Bft)
21.11.2014 22:35 5,3 C 96 % 1020,8 hPa 0,0 l/m 0,0 km/h (0 Bft) SO 135 4,7 C 7,8 C 0,0 km/h (0 Bft)
21.11.2014 22:40 5,3 C 96 % 1020,8 hPa 0,0 l/m 0,0 km/h (0 Bft) SO 135 4,7 C 7,8 C 0,0 km/h (0 Bft)
21.11.2014 22:45 5,3 C 96 % 1020,8 hPa 0,0 l/m 0,0 km/h (0 Bft) SO 135 4,7 C 7,8 C 0,0 km/h (0 Bft)
21.11.2014 22:50 5,2 C 96 % 1020,8 hPa 0,0 l/m 0,0 km/h (0 Bft) SO 135 4,6 C 7,8 C 0,0 km/h (0 Bft)
21.11.2014 22:55 5,2 C 96 % 1020,8 hPa 0,0 l/m 0,0 km/h (0 Bft) SO 135 4,6 C 7,8 C 0,0 km/h (0 Bft)
21.11.2014 23:00 5,2 C 96 % 1020,8 hPa 0,0 l/m 0,0 km/h (0 Bft) SO 135 4,6 C 7,8 C 0,0 km/h (0 Bft)
21.11.2014 23:05 5,2 C 96 % 1020,8 hPa 0,0 l/m 0,0 km/h (0 Bft) SO 135 4,6 C 7,8 C 0,0 km/h (0 Bft)
21.11.2014 23:10 5,2 C 96 % 1020,8 hPa 0,0 l/m 0,0 km/h (0 Bft) SO 135 4,6 C 7,8 C 0,0 km/h (0 Bft)
21.11.2014 23:15 5,1 C 96 % 1020,8 hPa 0,0 l/m 0,0 km/h (0 Bft) SO 135 4,5 C 7,8 C 0,0 km/h (0 Bft)
21.11.2014 23:20 5,1 C 96 % 1021,0 hPa 0,0 l/m 0,0 km/h (0 Bft) SO 135 4,5 C 7,8 C 0,0 km/h (0 Bft)
21.11.2014 23:25 5,2 C 96 % 1021,0 hPa 0,0 l/m 0,0 km/h (0 Bft) SO 135 4,6 C 7,8 C 0,0 km/h (0 Bft)
21.11.2014 23:30 5,1 C 96 % 1021,0 hPa 0,0 l/m 0,0 km/h (0 Bft) SO 135 4,5 C 7,8 C 0,0 km/h (0 Bft)
21.11.2014 23:35 5,1 C 96 % 1021,0 hPa 0,0 l/m 0,0 km/h (0 Bft) SO 135 4,5 C 7,8 C 0,0 km/h (0 Bft)
21.11.2014 23:40 5,1 C 96 % 1020,8 hPa 0,0 l/m 0,0 km/h (0 Bft) SO 135 4,5 C 7,8 C 0,0 km/h (0 Bft)
21.11.2014 23:43 5,0 C 96 % 1020,8 hPa 0,0 l/m 0,0 km/h (0 Bft) SO 135 4,4 C 7,8 C 0,0 km/h (0 Bft)
21.11.2014 23:45 5,0 C 96 % 1020,8 hPa 0,0 l/m 0,0 km/h (0 Bft) SO 135 4,4 C 7,8 C 0,0 km/h (0 Bft)
21.11.2014 23:50 5,0 C 96 % 1020,8 hPa 0,0 l/m 0,0 km/h (0 Bft) SO 135 4,4 C 7,8 C 0,0 km/h (0 Bft)
21.11.2014 23:55 5,0 C 96 % 1020,8 hPa 0,0 l/m 0,0 km/h (0 Bft) SO 135 4,4 C 7,8 C 0,0 km/h (0 Bft)
_ Min-Zeit 07:10 12:40 18:35 - 23:55 - - 07:10 23:55 23:55
Minimum _ 1,8 C 76 % 1020,6 hPa - 0,0 km/h (0 Bft) - - 1,4 C 7,8 C 0,0 km/h (0 Bft)
_ Max-Zeit 13:25 09:10 00:15 23:55 23:55 - - 22:45 23:55 23:55
Maximum _ 8,2 C 97 % 1022,9 hPa 0,0 l/m 0,0 km/h
SO (0 Bft)
- - 4,7 C 7,8 C 0,0 km/h
SO (0 Bft)
Durchschnitt _ 4,5 C 92 % 1021,6 hPa #0,0 l/m 0,0 km/h (0 Bft) - - - 3,3 C 7,8 C 0,0 km/h (0 Bft)